Flag for Switzerland Weather past 2 weeks in Montreux, Vaud, Switzerland

Now
61 °F

Cool.


Feels Like: 61 °F
Forecast: 43 / 62 °F
Wind: No wind

Location: Aigle

Current Time: Aug 31, 2014 at 10:17:50 AM

Latest Report: Aug 31, 2014 at 9:00 AM


Visibility: N/A

Pressure: 30.05 "Hg

Humidity: 89%

Dew point: 58 °F

Location of MontreuxLocation

Historic Weather in Montreux — Graph

°F

Montreux temperature yesterday

Maximum temperature yesterday: 74 °F (at 5:00 PM)
Minimum temperature yesterday: 59 °F (at 4:00 AM)
Average temperature yesterday: 66 °F

Past Weeks' High & Low Weather Summary

 TemperatureHumidityPressure
High74 °F (Aug 18, 5:00 PM)100% (Aug 30, 4:00 AM)30.21 "Hg (Aug 30, 4:00 AM)
Low47 °F (Aug 17, 7:00 AM)38% (Aug 21, 4:00 PM)29.81 "Hg (Aug 18, 6:00 PM)
Average61 °F77%30.02 "Hg
* Reported Aug 16 9:00 AM — Aug 31 9:00 AM, Montreux, Weather by CustomWeather, © 2014

Note: Actual official high and low records may vary slightly from our data, if they occured in-between our weather recording intervals... More about our weather records

Advertising

Montreux weather history for previous 24 hours

 ConditionsComfort  
Time TempWeatherWind HumidityBarometerVisibility
9:00 AM
Aug 31
61 °FCool.No wind89%30.05 "HgN/A
8:00 AM59 °FCool.3 mph95%30.06 "HgN/A
7:00 AM57 °FCool.No wind95%30.05 "HgN/A
6:00 AM58 °FCool.1 mph95%30.05 "HgN/A
5:00 AM58 °FOvercast.1 mph94%30.05 "Hg9 mi
4:00 AM58 °FCool.1 mph95%30.05 "HgN/A
3:00 AM57 °FCool.1 mph95%30.06 "HgN/A
2:00 AM58 °FCool.2 mph95%30.06 "HgN/A
1:00 AM58 °FCool.1 mph97%30.07 "HgN/A
12:00 AM59 °FCool.1 mph94%30.06 "HgN/A
11:00 PM
Aug 30
60 °FCool.1 mph94%30.06 "HgN/A
10:00 PM64 °FMild.1 mph88%30.05 "HgN/A
9:00 PM66 °FMild.2 mph88%30.04 "HgN/A
8:00 PM68 °FScattered clouds.2 mph75%30.02 "Hg19 mi
7:00 PM73 °FMild.3 mph63%30.00 "HgN/A
6:00 PM73 °FMild.5 mph61%30.00 "HgN/A
5:00 PM74 °FScattered clouds.8 mph58%30.00 "Hg19 mi
4:00 PM72 °FMild.8 mph64%30.02 "HgN/A
3:00 PM74 °FMild.12 mph64%30.03 "HgN/A
2:00 PM73 °FPassing clouds.10 mph63%30.04 "Hg22 mi
1:00 PM72 °FMild.12 mph69%30.06 "HgN/A
12:00 PM71 °FMild.6 mph74%30.08 "HgN/A
11:00 AM68 °FScattered clouds.3 mph79%30.09 "Hg16 mi
10:00 AM65 °FMild.2 mph87%30.11 "HgN/A
Weather by CustomWeather, © 2014

See weather overviewHow to use our weather pages